HST,Max TemperatureF,Mean TemperatureF,Min TemperatureF,Max Dew PointF,MeanDew PointF,Min DewpointF,Max Humidity, Mean Humidity, Min Humidity, Max Sea Level PressureIn, Mean Sea Level PressureIn, Min Sea Level PressureIn, Max VisibilityMiles, Mean VisibilityMiles, Min VisibilityMiles, Max Wind SpeedMPH, Mean Wind SpeedMPH, Max Gust SpeedMPH,PrecipitationIn, CloudCover, Events, WindDirDegrees
2011-11-1,80,75,69,70,68,66,90,76,62,30.06,30.01,29.95,10,8,1,8,3,10,T,7,Rain,190
2011-11-2,83,75,67,70,67,64,93,78,62,30.11,30.05,30.00,10,7,1,14,4,18,0.30,7,Rain,243
2011-11-3,79,74,68,70,68,64,93,82,71,30.14,30.08,30.03,10,7,1,14,5,20,0.83,7,Rain-Thunderstorm,235
2011-11-4,82,74,66,68,66,64,97,80,62,30.12,30.08,30.03,10,8,1,18,5,24,0.98,7,Rain-Thunderstorm,115
2011-11-5,83,76,69,69,65,64,84,73,62,30.09,30.05,29.99,10,10,2,20,7,25,0.14,7,Rain,221
2011-11-6,83,76,69,69,65,55,90,74,58,30.10,30.05,30.01,10,10,3,16,6,20,0.17,6,Rain,202
2011-11-7,78,72,66,70,66,54,97,78,59,30.14,30.08,30.03,10,7,2,14,6,16,0.52,8,Rain,252
2011-11-8,73,70,67,70,67,64,97,91,84,30.12,30.08,30.03,10,6,1,15,4,21,1.59,7,Rain-Thunderstorm,246
2011-11-9,81,75,69,70,67,66,90,80,69,30.11,30.07,30.02,10,9,1,21,6,28,1.21,7,Rain,22
2011-11-10,80,74,68,68,66,64,90,76,62,30.12,30.08,30.02,10,8,2,14,5,16,0.40,7,Rain,290
2011-11-11,77,72,66,70,66,63,97,87,76,30.13,30.08,30.02,10,7,1,20,7,25,1.14,8,Rain,264
2011-11-12,75,71,67,68,66,62,90,82,73,30.13,30.08,30.04,10,6,2,14,7,26,1.56,8,Rain,259
2011-11-13,79,72,65,70,65,57,93,81,69,30.10,30.06,30.02,10,9,2,10,5,22,0.12,7,Rain,240
2011-11-14,81,74,66,70,66,60,90,76,62,30.08,30.04,29.99,10,10,5,13,5,17,0.11,6,Rain,186
2011-11-15,82,75,67,68,66,63,97,78,58,30.06,30.02,29.96,10,10,7,13,6,15,0.06,4,Rain,209
2011-11-16,81,74,66,70,66,58,81,72,62,30.07,30.03,29.97,10,8,1,12,7,15,0.00,6,Rain,214
2011-11-17,79,74,69,70,68,66,97,86,74,30.12,30.07,30.02,10,9,2,13,6,14,0.25,7,Rain,225
2011-11-18,80,75,70,70,68,66,93,80,67,30.13,30.08,30.03,10,10,6,15,3,17,0.21,6,Rain,261
2011-11-19,76,73,69,70,67,64,97,86,74,30.12,30.07,30.01,10,8,2,13,5,16,0.58,7,Rain,246
2011-11-20,78,73,67,70,67,64,93,84,74,30.12,30.07,30.02,10,7,2,15,5,21,0.81,7,Rain,219
2011-11-21,78,72,66,67,65,63,93,79,64,30.14,30.09,30.04,10,9,2,10,4,15,0.30,7,Rain,224
2011-11-22,80,72,64,68,65,61,93,78,62,30.16,30.12,30.07,10,9,2,13,6,15,0.28,5,Rain,289
2011-11-23,80,74,67,67,64,58,90,74,58,30.17,30.12,30.07,10,9,2,9,5,10,0.26,6,Rain,252
2011-11-24,78,72,65,67,64,55,90,77,64,30.12,30.08,30.04,10,8,2,13,5,21,0.25,7,Rain,214
2011-11-25,79,74,68,67,66,64,93,80,67,30.12,30.08,30.02,10,10,5,10,5,13,0.02,8,Rain,318
2011-11-26,80,75,69,67,65,63,90,74,58,30.21,30.13,30.06,10,9,2,20,9,25,0.19,7,Rain,336
2011-11-27,79,74,68,66,61,56,84,66,48,30.21,30.16,30.12,10,10,10,17,11,22,0.01,7,Rain,33
2011-11-28,76,71,66,64,61,57,81,71,60,30.13,30.06,29.98,10,10,7,20,8,25,0.01,7,Rain,344
2011-11-29,79,72,65,65,63,60,93,76,58,30.02,29.95,29.88,10,10,10,15,7,18,0.09,5,,291
2011-11-30,79,71,63,65,61,55,87,74,60,29.97,29.93,29.87,10,10,10,12,6,16,0.00,2,,279